Weather History for EGVO - November, 2013

Change the Weather History Date:

Monday, November 4, 2013

  Actual Average Record
Temperature  
Mean Temperature 43 °F -  
Max Temperature 49 °F - - ()
Min Temperature 37 °F - - ()
Degree Days  
Heating Degree Days 22    
Moisture  
Dew Point 38 °F    
Average Humidity 81    
Maximum Humidity 100    
Minimum Humidity 52    
Precipitation  
Precipitation 0.01 in - - ()
Sea Level Pressure  
Sea Level Pressure 29.29 in    
Wind  
Wind Speed 10 mph ()    
Max Wind Speed 20 mph    
Max Gust Speed -    
Visibility 5.6 miles    
Events Rain    
T = Trace of Precipitation, MM = Missing Value Source: Averaged Metar Reports

Daily Weather History Graph

Daily Weather History Graph

Search for Another Location

Airport or City:

Trip Planner

Search our weather history database for the weather conditions in past years. The results will help you decide how hot, cold, wet, or windy it might be!

Date:

Astronomy

Nov. 04, 2013 Rise Set
Actual Time 7:01 AM GMT 4:31 PM GMT
Civil Twilight 6:26 AM GMT 5:07 PM GMT
Nautical Twilight 5:47 AM GMT 5:46 PM GMT
Astronomical Twilight 5:08 AM GMT 6:25 PM GMT
Moon 8:02 AM GMT (11/4) 5:16 PM GMT (11/4)
Length of Visible Light 10h 40m
Length of Day
9h 30m
New Moon, 1% of the Moon is Illuminated
Nov 4
New Moon
Nov 10
First Quarter
Nov 17
Full
Nov 25
Last Quarter
Dec 3
New

Hourly Weather History & Observations

Time (GMT) Temp. Windchill Dew Point Humidity Pressure Visibility Wind Dir Wind Speed Gust Speed Precip Events Conditions
12:00 AM 48 °F - 47 °F 96% 29.05 in 2 mi North 3.5 mph - - Rain Light Rain
12:50 AM 46.4 °F 44.3 °F 46.4 °F 100% 29.00 in 2.5 mi North 4.6 mph - N/A Rain Light Rain
1:50 AM 46.4 °F 41.1 °F 44.6 °F 93% 29.00 in 1.9 mi North 11.5 mph - N/A Rain Rain
2:50 AM 44.6 °F 38.1 °F 42.8 °F 93% 28.97 in 5.0 mi NNE 13.8 mph - N/A Rain Light Rain
3:00 AM 44 °F - 43 °F 97% 29.01 in 5 mi NNE 13.8 mph - - Rain Light Rain
3:50 AM 42.8 °F 34.8 °F 41.0 °F 93% 29.00 in 2.5 mi North 17.3 mph - N/A Rain Light Rain
4:50 AM 41.0 °F 31.9 °F 41.0 °F 100% 29.06 in 3.7 mi North 19.6 mph - N/A Rain Light Rain
5:50 AM 41.0 °F 32.5 °F 39.2 °F 93% 29.09 in 6.2 mi North 17.3 mph - N/A   Overcast
6:00 AM 42 °F - 39 °F 85% 29.13 in 9 mi North 17.3 mph - - Rain Light Drizzle
6:50 AM 41.0 °F 33.9 °F 39.2 °F 93% 29.15 in 6.2 mi NNW 12.7 mph - N/A   Overcast
7:50 AM 42.8 °F 36.2 °F 39.2 °F 87% 29.21 in 6.2 mi NNW 12.7 mph - N/A   Mostly Cloudy
8:50 AM 41.0 °F 34.3 °F 37.4 °F 87% 29.27 in 6.2 mi NW 11.5 mph - N/A   Scattered Clouds
9:00 AM 41 °F - 38 °F 84% 29.29 in 11 mi NW 11.5 mph - -   Scattered Clouds
9:50 AM 42.8 °F 36.6 °F 37.4 °F 81% 29.30 in 6.2 mi WNW 11.5 mph - N/A   Partly Cloudy
10:50 AM 44.6 °F 38.8 °F 35.6 °F 71% 29.33 in 6.2 mi NW 11.5 mph - N/A   Partly Cloudy
11:50 AM 46.4 °F 40.1 °F 35.6 °F 66% 29.36 in 6.2 mi WNW 15.0 mph - N/A   Partly Cloudy
12:00 PM 47 °F - 35 °F 52% 29.37 in 25 mi WNW 15.0 mph - -   Scattered Clouds
12:50 PM 48.2 °F - 37.4 °F 66% 29.36 in 6.2 mi WNW 11.5 mph - N/A   Scattered Clouds
1:50 PM 48.2 °F - 37.4 °F 66% 29.39 in 6.2 mi NW 12.7 mph - N/A   Scattered Clouds
2:50 PM 48.2 °F - 35.6 °F 62% 29.42 in 6.2 mi WNW 12.7 mph - N/A   Scattered Clouds
3:00 PM 48 °F - 36 °F 52% 29.42 in 25 mi WNW 12.7 mph - -   Partly Cloudy
3:50 PM 48.2 °F - 37.4 °F 66% 29.42 in 6.2 mi West 9.2 mph - N/A   Partly Cloudy
4:50 PM 46.4 °F 42.9 °F 37.4 °F 71% 29.44 in 6.2 mi WSW 6.9 mph - N/A   Partly Cloudy
5:50 PM 44.6 °F 39.2 °F 37.4 °F 76% 29.47 in 6.2 mi SW 10.4 mph - N/A   Partly Cloudy
6:00 PM 44 °F - 37 °F 68% 29.49 in 28 mi SW 10.4 mph - -   Scattered Clouds
6:50 PM 42.8 °F 36.6 °F 37.4 °F 81% 29.47 in 6.2 mi WSW 11.5 mph - N/A   Partly Cloudy
7:50 PM 42.8 °F 36.6 °F 37.4 °F 81% 29.50 in - SW 11.5 mph - N/A   Clear
8:50 PM 37.4 °F 31.4 °F 35.6 °F 93% 29.50 in - SSW 8.1 mph - N/A   Clear
9:00 PM 38 °F - 35 °F 86% 29.52 in 25 mi SSW 8.1 mph - -  
9:50 PM 39.2 °F 33.6 °F 35.6 °F 87% 29.47 in - SW 8.1 mph - N/A   Clear
10:50 PM 39.2 °F 33.6 °F 35.6 °F 87% 29.47 in - SSW 8.1 mph - N/A   Clear
11:50 PM 39.2 °F 34.2 °F 33.8 °F 81% 29.47 in - SSW 6.9 mph - N/A   Clear